BG9VZ-13 Weather Reports


time (UTC)temp
F
wind
direction
speed
knots
gust
knots
rain 1hr
in
rain 24hr
in
rain mn
in
humidity
%
barometer
mb
20260505080924 66 0 0.0 0.0 0.00 0.00 0.00 29 758.5
20260505073925 67 0 0.0 0.0 0.00 0.00 0.00 26 758.7
20260505070926 67 0 0.0 0.0 0.00 0.00 0.00 29 758.9
20260505063925 66 0 0.0 0.0 0.00 0.00 0.00 36 759.6
20260505060926 66 0 0.0 0.0 0.00 0.00 0.00 39 760.1
20260505053927 65 0 0.0 0.0 0.00 0.00 0.00 39 760.5
20260505050928 65 0 0.0 0.0 0.00 0.00 0.00 40 761.4
20260505040930 65 0 0.0 0.0 0.00 0.00 0.00 40 762.8
20260505033931 64 0 0.0 0.0 0.00 0.00 0.00 41 763.3
20260505030932 64 0 0.0 0.0 0.00 0.00 0.00 41 763.7
20260505023933 64 0 0.0 0.0 0.00 0.00 0.00 41 764.4
20260505020935 64 0 0.0 0.0 0.00 0.00 0.00 41 764.7
20260505013936 64 0 0.0 0.0 0.00 0.00 0.00 42 764.9
20260505010938 64 0 0.0 0.0 0.00 0.00 0.00 42 765.3
20260505003939 64 0 0.0 0.0 0.00 0.00 0.00 42 765.3
20260505000940 64 0 0.0 0.0 0.00 0.00 0.00 42 765.6
20260504233941 64 0 0.0 0.0 0.00 0.00 0.00 42 765.9
20260504230942 64 0 0.0 0.0 0.00 0.00 0.00 42 765.8
20260504223943 64 0 0.0 0.0 0.00 0.00 0.00 42 765.5
20260504220945 64 0 0.0 0.0 0.00 0.00 0.00 42 765.1
20260504213946 64 0 0.0 0.0 0.00 0.00 0.00 42 765.0
20260504210947 64 0 0.0 0.0 0.00 0.00 0.00 42 765.1
20260504203948 64 0 0.0 0.0 0.00 0.00 0.00 42 764.9
20260504200949 64 0 0.0 0.0 0.00 0.00 0.00 41 765.0
20260504193951 64 0 0.0 0.0 0.00 0.00 0.00 41 765.2
20260504190952 64 0 0.0 0.0 0.00 0.00 0.00 41 765.3
20260504183953 64 0 0.0 0.0 0.00 0.00 0.00 41 765.1
20260504180954 64 0 0.0 0.0 0.00 0.00 0.00 41 765.4
20260504173955 64 0 0.0 0.0 0.00 0.00 0.00 41 765.4
20260504170957 64 0 0.0 0.0 0.00 0.00 0.00 41 765.7
20260504151001 64 0 0.0 0.0 0.00 0.00 0.00 40 765.5
20260504141004 65 0 0.0 0.0 0.00 0.00 0.00 40 765.7